Back to catalog

STARLINK-5351

AliveCommunicationsVLEO
NORAD 56511·PAYLOAD·🇺🇸 United States

Launched May 14, 2023 from Cape Canaveral Space Force Station

Loading…

Next Passes (next 24 hours)

TLE

FreshSource: CelesTrak SupGP

Epoch: Sep 14, 2026, 14:54 UTC

1 56511C 23065J   26257.62131944 -.00033375  00000+0 -12089-2 0  2577
2 56511  42.9998 225.3395 0001187 262.8020 187.0481 15.27594128    11

Track STARLINK-5351 in real time with AllMySat

Download on the App Store